Flag for Canada Weather past 2 weeks in Portage la Prairie, Manitoba, Canada

Now
30 °F

Light snow. Ice fog.


Feels Like: 20 °F
Forecast: 25 / 43 °F
Wind: 14 mph from Southeast

Location: Portage Southport A

Current Time: Mar 27, 2015 at 8:46:46 PM

Latest Report: Mar 27, 2015 at 5:00 PM


Visibility: 1 mi

Pressure: 30.09 "Hg

Humidity: 93%

Dew point: 28 °F

Location of Portage la PrairieLocation

Historic Weather in Portage la Prairie — Graph

°F

Portage la Prairie temperature yesterday

Maximum temperature yesterday: 28 °F (at 3:00 PM)
Minimum temperature yesterday: 16 °F (at 11:00 PM)
Average temperature yesterday: 23 °F

Past Weeks' High & Low Weather Summary

 TemperatureHumidityPressure
High48 °F (Mar 18, 6:00 PM)100% (Mar 23, 6:00 AM)30.52 "Hg (Mar 23, 6:00 AM)
Low16 °F (Mar 26, 11:00 PM)34% (Mar 18, 7:00 PM)29.80 "Hg (Mar 24, 5:00 PM)
Average31 °F73%30.19 "Hg
* Reported Mar 12 5:00 PM — Mar 27 5:00 PM, Portage la Prairie, Weather by CustomWeather, © 2015

Note: Actual official high and low records may vary slightly from our data, if they occured in-between our weather recording intervals... More about our weather records

Advertising

Portage la Prairie weather history for previous 24 hours

 ConditionsComfort  
Time TempWeatherWind HumidityBarometerVisibility
5:00 PM
Fri, Mar 27
30 °FLight snow. Ice fog.14 mph93%30.09 "Hg1 mi
4:00 PM30 °FLight snow. Ice fog.16 mph93%30.09 "Hg1 mi
3:00 PM30 °FLight snow. Ice fog.14 mph93%30.10 "Hg1 mi
2:00 PM30 °FLight snow. Ice fog.13 mph86%30.10 "Hg1 mi
1:00 PM28 °FLight snow. Ice fog.14 mph93%30.12 "Hg1 mi
12:00 PM28 °FLight snow. Overcast.14 mph86%30.14 "Hg3 mi
11:00 AM27 °FLight snow. Overcast.17 mph80%30.16 "Hg3 mi
10:00 AM27 °FPartly sunny.12 mph74%30.19 "Hg15 mi
9:00 AM23 °FPartly sunny.9 mph86%30.20 "Hg15 mi
8:00 AM21 °FPassing clouds.8 mph86%30.23 "Hg15 mi
7:00 AM21 °FPassing clouds.8 mph80%30.23 "Hg15 mi
6:00 AM19 °FMostly cloudy.9 mph79%30.26 "Hg15 mi
12:00 AM16 °FClear.5 mph86%30.36 "Hg15 mi
11:00 PM
Thu, Mar 26
16 °FClear.6 mph86%30.37 "Hg15 mi
10:00 PM19 °FClear.No wind79%30.38 "Hg15 mi
9:00 PM23 °FPassing clouds.2 mph68%30.37 "Hg15 mi
8:00 PM25 °FPassing clouds.6 mph63%30.39 "Hg15 mi
Weather by CustomWeather, © 2015

See weather overviewHow to use our weather pages